Weather History for KL35 - September, 2013

Change the Weather History Date:

Sunday, September 15, 2013

  Actual Average (KBUO) Record (KBUO)
Temperature  
Mean Temperature 60 °F -  
Max Temperature 77 °F 85 °F 98 °F (2000)
Min Temperature 42 °F 57 °F 51 °F (1999)
Degree Days  
Heating Degree Days 6    
Growing Degree Days 10 (Base 50)    
Moisture  
Dew Point 38 °F    
Average Humidity 50    
Maximum Humidity 76    
Minimum Humidity 22    
Precipitation  
Precipitation 0.00 in - - ()
Sea Level Pressure  
Sea Level Pressure 30.15 in    
Wind  
Wind Speed 2 mph (WSW)    
Max Wind Speed 12 mph    
Max Gust Speed 16 mph    
Visibility 10 miles    
Events      
Averages and records for this station are not official NWS values.
T = Trace of Precipitation, MM = Missing Value Source: NWS Daily Summary

Daily Weather History Graph

Daily Weather History Graph

Search for Another Location

Airport or City:

Trip Planner

Search our weather history database for the weather conditions in past years. The results will help you decide how hot, cold, wet, or windy it might be!

Date:

Astronomy

Sep. 15, 2013 Rise Set
Actual Time 6:30 AM PDT 6:53 PM PDT
Civil Twilight 6:05 AM PDT 7:18 PM PDT
Nautical Twilight 5:36 AM PDT 7:48 PM PDT
Astronomical Twilight 5:06 AM PDT 8:18 PM PDT
Moon 4:17 PM PDT (9/15) 2:22 AM PDT (9/15)
Length of Visible Light 13h 13m
Length of Day
12h 22m
Waxing Gibbous, 83% of the Moon is Illuminated
Sep 15
Waxing Gibbous
Sep 19
Full
Sep 26
Last Quarter
Oct 4
New
Oct 11
First Quarter

Hourly Weather History & Observations

Time (PDT) Temp. Dew Point Humidity Pressure Visibility Wind Dir Wind Speed Gust Speed Precip Events Conditions
12:15 AM 48.2 °F 37.4 °F 66% 30.13 in 10.0 mi Calm Calm - N/A   Clear
12:35 AM 46.4 °F 37.4 °F 71% 30.13 in 10.0 mi Calm Calm - N/A   Clear
12:55 AM 46.4 °F 37.4 °F 71% 30.13 in 10.0 mi Calm Calm - N/A   Clear
1:15 AM 46.4 °F 35.6 °F 66% 30.13 in 10.0 mi Calm Calm - N/A   Clear
1:35 AM 46.4 °F 37.4 °F 71% 30.13 in 10.0 mi Calm Calm - N/A   Clear
1:55 AM 46.4 °F 35.6 °F 66% 30.13 in 10.0 mi Calm Calm - N/A   Clear
2:15 AM 44.6 °F 35.6 °F 71% 30.12 in 10.0 mi Calm Calm - N/A   Clear
2:35 AM 44.6 °F 37.4 °F 76% 30.12 in 10.0 mi Calm Calm - N/A   Clear
2:55 AM 44.6 °F 35.6 °F 71% 30.13 in 10.0 mi Calm Calm - N/A   Clear
3:15 AM 44.6 °F 35.6 °F 71% 30.13 in 10.0 mi Calm Calm - N/A   Clear
3:35 AM 44.6 °F 37.4 °F 76% 30.13 in 10.0 mi Calm Calm - N/A   Clear
3:55 AM 42.8 °F 35.6 °F 76% 30.12 in 10.0 mi Calm Calm - N/A   Clear
4:15 AM 42.8 °F 35.6 °F 76% 30.13 in 10.0 mi Calm Calm - N/A   Clear
4:35 AM 42.8 °F 35.6 °F 76% 30.13 in 10.0 mi Calm Calm - N/A   Clear
4:55 AM 42.8 °F 35.6 °F 76% 30.13 in 10.0 mi Calm Calm - N/A   Clear
5:15 AM 42.8 °F 35.6 °F 76% 30.13 in 10.0 mi Calm Calm - N/A   Clear
5:35 AM 42.8 °F 35.6 °F 76% 30.14 in 10.0 mi Calm Calm - N/A   Clear
5:55 AM 42.8 °F 35.6 °F 76% 30.14 in 10.0 mi Calm Calm - N/A   Clear
6:15 AM 42.8 °F 35.6 °F 76% 30.14 in 10.0 mi Calm Calm - N/A   Clear
6:35 AM 42.8 °F 35.6 °F 76% 30.15 in 10.0 mi Calm Calm - N/A   Clear
6:55 AM 42.8 °F 35.6 °F 76% 30.15 in 10.0 mi Calm Calm - N/A   Clear
7:15 AM 42.8 °F 35.6 °F 76% 30.16 in 10.0 mi Calm Calm - N/A   Clear
7:35 AM 46.4 °F 37.4 °F 71% 30.16 in 10.0 mi Calm Calm - N/A   Clear
7:55 AM 50.0 °F 42.8 °F 76% 30.16 in 10.0 mi Calm Calm - N/A   Clear
8:15 AM 53.6 °F 44.6 °F 72% 30.16 in 10.0 mi Calm Calm - N/A   Clear
8:35 AM 59.0 °F 42.8 °F 55% 30.17 in 10.0 mi Calm Calm - N/A   Clear
8:55 AM 60.8 °F 42.8 °F 52% 30.17 in 10.0 mi Calm Calm - N/A   Clear
9:15 AM 64.4 °F 41.0 °F 42% 30.17 in 10.0 mi Calm Calm - N/A   Clear
9:35 AM 71.6 °F 33.8 °F 25% 30.17 in 10.0 mi East 6.9 mph - N/A   Clear
9:55 AM 71.6 °F 33.8 °F 25% 30.18 in 10.0 mi ESE 3.5 mph 16.1 mph N/A   Clear
10:15 AM 71.6 °F 35.6 °F 27% 30.17 in 10.0 mi SE 5.8 mph - N/A   Clear
10:35 AM 71.6 °F 33.8 °F 25% 30.17 in 10.0 mi South 5.8 mph - N/A   Clear
10:55 AM 71.6 °F 32.0 °F 23% 30.17 in 10.0 mi East 3.5 mph - N/A   Clear
11:15 AM 73.4 °F 33.8 °F 23% 30.17 in 10.0 mi South 8.1 mph - N/A   Clear
11:35 AM 73.4 °F 33.8 °F 23% 30.17 in 10.0 mi South 3.5 mph - N/A   Clear
11:55 AM 73.4 °F 32.0 °F 22% 30.17 in 10.0 mi Calm Calm - N/A   Scattered Clouds
12:15 PM 73.4 °F 37.4 °F 27% 30.17 in 10.0 mi West 11.5 mph 16.1 mph N/A   Scattered Clouds
12:35 PM 73.4 °F 39.2 °F 29% 30.17 in 10.0 mi West 10.4 mph - N/A   Scattered Clouds
12:55 PM 73.4 °F 39.2 °F 29% 30.17 in 10.0 mi West 10.4 mph - N/A   Clear
1:15 PM 75.2 °F 37.4 °F 25% 30.16 in 10.0 mi West 8.1 mph - N/A   Clear
1:35 PM 73.4 °F 37.4 °F 27% 30.16 in 10.0 mi West 9.2 mph - N/A   Clear
1:55 PM 73.4 °F 35.6 °F 25% 30.15 in 10.0 mi West 5.8 mph - N/A   Clear
2:15 PM 75.2 °F 37.4 °F 25% 30.15 in 10.0 mi West 9.2 mph - N/A   Scattered Clouds
2:35 PM 77.0 °F 37.4 °F 24% 30.15 in 10.0 mi West 6.9 mph - N/A   Scattered Clouds
2:55 PM 77.0 °F 35.6 °F 22% 30.14 in 10.0 mi Calm Calm - N/A   Scattered Clouds
3:15 PM 75.2 °F 37.4 °F 25% 30.14 in 10.0 mi West 6.9 mph - N/A   Mostly Cloudy
3:35 PM 75.2 °F 37.4 °F 25% 30.14 in 10.0 mi WNW 4.6 mph - N/A   Mostly Cloudy
3:55 PM 73.4 °F 37.4 °F 27% 30.13 in 10.0 mi West 8.1 mph - N/A   Mostly Cloudy
4:15 PM 73.4 °F 37.4 °F 27% 30.13 in 10.0 mi WSW 6.9 mph - N/A   Mostly Cloudy
4:35 PM 75.2 °F 39.2 °F 27% 30.13 in 10.0 mi West 11.5 mph - N/A   Mostly Cloudy
4:55 PM 73.4 °F 37.4 °F 27% 30.14 in 10.0 mi SW 6.9 mph - N/A   Scattered Clouds
5:15 PM 73.4 °F 39.2 °F 29% 30.14 in 10.0 mi WSW 6.9 mph - N/A   Clear
5:35 PM 71.6 °F 37.4 °F 29% 30.14 in 10.0 mi SSW 6.9 mph - N/A   Clear
5:55 PM 69.8 °F 39.2 °F 33% 30.14 in 10.0 mi SW 4.6 mph - N/A   Clear
6:15 PM 69.8 °F 41.0 °F 35% 30.15 in 10.0 mi SW 3.5 mph - N/A   Clear
6:35 PM 68.0 °F 41.0 °F 37% 30.15 in 10.0 mi WSW 3.5 mph - N/A   Clear
6:55 PM 66.2 °F 41.0 °F 40% 30.15 in 10.0 mi SW 5.8 mph - N/A   Clear
7:15 PM 64.4 °F 41.0 °F 42% 30.16 in 10.0 mi Calm Calm - N/A   Clear
7:35 PM 64.4 °F 41.0 °F 42% 30.16 in 10.0 mi WNW 6.9 mph - N/A   Clear
7:55 PM 62.6 °F 41.0 °F 45% 30.16 in 10.0 mi WSW 3.5 mph - N/A   Clear
8:15 PM 60.8 °F 41.0 °F 48% 30.17 in 10.0 mi Calm Calm - N/A   Clear
8:35 PM 59.0 °F 41.0 °F 51% 30.17 in 10.0 mi Calm Calm - N/A   Clear
8:55 PM 59.0 °F 41.0 °F 51% 30.18 in 10.0 mi Calm Calm - N/A   Clear
9:15 PM 55.4 °F 41.0 °F 58% 30.18 in 10.0 mi Calm Calm - N/A   Clear
9:35 PM 55.4 °F 41.0 °F 58% 30.19 in 10.0 mi Calm Calm - N/A   Clear
9:55 PM 53.6 °F 41.0 °F 62% 30.19 in 10.0 mi Calm Calm - N/A   Clear
10:15 PM 53.6 °F 41.0 °F 62% 30.19 in 10.0 mi Calm Calm - N/A   Clear
10:35 PM 51.8 °F 41.0 °F 67% 30.19 in 10.0 mi Calm Calm - N/A   Clear
10:55 PM 51.8 °F 41.0 °F 67% 30.19 in 10.0 mi Calm Calm - N/A   Clear
11:15 PM 50.0 °F 41.0 °F 71% 30.20 in 10.0 mi Calm Calm - N/A   Clear
11:35 PM 50.0 °F 39.2 °F 66% 30.20 in 10.0 mi Calm Calm - N/A   Clear
11:55 PM 50.0 °F 39.2 °F 66% 30.20 in 10.0 mi Calm Calm - N/A   Clear